Bedford, MA

1:56 PM EDT on August 24, 2016 (GMT -0400)
Hanscom

Weather History for KBED - November, 2012

Change the Weather History Date:

Friday, November 23, 2012

  Actual Average Record
Temperature  
Mean Temperature 40 °F -  
Max Temperature 55 °F 46 °F 71 °F (1979)
Min Temperature 26 °F 28 °F 7 °F (1989)
Degree Days  
Heating Degree Days 24    
Moisture  
Dew Point 32 °F    
Average Humidity 90    
Maximum Humidity 100    
Minimum Humidity 62    
Precipitation  
Precipitation 0.00 in - - ()
Sea Level Pressure  
Sea Level Pressure 29.99 in    
Wind  
Wind Speed 1 mph (SSW)    
Max Wind Speed 10 mph    
Max Gust Speed -    
Visibility 5 miles    
Events Fog    
Averages and records for this station are not official NWS values.
T = Trace of Precipitation, MM = Missing Value Source: NWS Daily Summary

Daily Weather History Graph

Daily Weather History Graph

Search for Another Location

Airport or City:

Trip Planner

Search our weather history database for the weather conditions in past years. The results will help you decide how hot, cold, wet, or windy it might be!

Date:

Astronomy

Nov. 23, 2012 Rise Set
Actual Time 6:46 AM EST 4:16 PM EST
Civil Twilight 6:15 AM EST 4:47 PM EST
Nautical Twilight 5:41 AM EST 5:22 PM EST
Astronomical Twilight 5:07 AM EST 5:55 PM EST
Moon 1:34 PM EST (11/23) 1:57 AM EST (11/23)
Length of Visible Light 10h 31m
Length of Day
9h 30m
Waxing Gibbous, 79% of the Moon is Illuminated
Nov 23
Waxing Gibbous
Nov 28
Full
Dec 6
Last Quarter
Dec 13
New
Dec 20
First Quarter

Hourly Weather History & Observations

Time (EST) Temp. Windchill Dew Point Humidity Pressure Visibility Wind Dir Wind Speed Gust Speed Precip Events Conditions
12:03 AM 30.2 °F - 28.4 °F 93% 30.12 in 0.5 mi Calm Calm - N/A Fog Light Freezing Fog
12:51 AM 30.2 °F - 28.4 °F 93% 30.10 in 0.5 mi Calm Calm - N/A Fog Light Freezing Fog
12:56 AM 30.0 °F - 28.9 °F 96% 30.15 in 1.5 mi Calm Calm - N/A   Clear
12:59 AM 30.2 °F - 28.4 °F 93% 30.10 in 3.0 mi Calm Calm - N/A   Clear
1:13 AM 30.2 °F - 28.4 °F 93% 30.10 in 7.0 mi Calm Calm - N/A   Partly Cloudy
1:56 AM 28.9 °F - 27.0 °F 92% 30.14 in 7.0 mi Calm Calm - N/A   Clear
2:04 AM 28.4 °F - 26.6 °F 93% 30.09 in 4.0 mi Calm Calm - N/A   Scattered Clouds
2:12 AM 28.4 °F - 28.4 °F 100% 30.09 in 4.0 mi Calm Calm - N/A   Mostly Cloudy
2:20 AM 28.4 °F - 26.6 °F 93% 30.09 in 2.0 mi Calm Calm - N/A   Mostly Cloudy
2:29 AM 28.4 °F - 26.6 °F 93% 30.09 in 6.0 mi Calm Calm - N/A   Overcast
2:40 AM 28.4 °F - 26.6 °F 93% 30.08 in 1.8 mi Calm Calm - N/A   Overcast
2:45 AM 28.4 °F - 26.6 °F 93% 30.08 in 0.8 mi Calm Calm - N/A   Mist
2:56 AM 28.0 °F - 27.0 °F 96% 30.12 in 0.8 mi Calm Calm - N/A   Mist
3:24 AM 26.6 °F - 26.6 °F 100% 30.07 in 3.0 mi Calm Calm - N/A   Overcast
3:28 AM 28.4 °F - 26.6 °F 93% 30.07 in 1.2 mi Calm Calm - N/A   Overcast
3:45 AM 28.4 °F - 26.6 °F 93% 30.06 in 0.2 mi Calm Calm - N/A Fog Light Freezing Fog
3:56 AM 28.0 °F - 27.0 °F 96% 30.11 in 0.2 mi Calm Calm - N/A Fog Light Freezing Fog
4:07 AM 28.4 °F - 26.6 °F 93% 30.06 in 0.8 mi Calm Calm - N/A   Mist
4:10 AM 28.4 °F - 26.6 °F 93% 30.05 in 1.2 mi Calm Calm - N/A   Scattered Clouds
4:24 AM 26.6 °F 22.6 °F 26.6 °F 100% 30.05 in 0.8 mi WNW 3.5 mph - N/A   Mist
4:32 AM 26.6 °F - 26.6 °F 100% 30.05 in 0.5 mi Calm Calm - N/A Fog Light Freezing Fog
4:42 AM 26.6 °F - 26.6 °F 100% 30.05 in 0.2 mi Calm Calm - N/A Fog Light Freezing Fog
4:54 AM 28.4 °F - 28.4 °F 100% 30.05 in 0.2 mi Calm Calm - N/A Fog Light Freezing Fog
4:56 AM 28.9 °F - 28.0 °F 96% 30.09 in 0.2 mi Calm Calm - N/A Fog Light Freezing Fog
5:07 AM 28.4 °F - 26.6 °F 93% 30.04 in 0.5 mi Calm Calm - N/A Fog Light Freezing Fog
5:10 AM 28.4 °F - 26.6 °F 93% 30.05 in 3.0 mi Calm Calm - N/A   Overcast
5:15 AM 28.4 °F - 26.6 °F 93% 30.05 in 1.5 mi Calm Calm - N/A   Overcast
5:23 AM 26.6 °F - 24.8 °F 93% 30.05 in 0.5 mi Calm Calm - N/A Fog Light Freezing Fog
5:43 AM 28.4 °F - 26.6 °F 93% 30.04 in 0.2 mi Calm Calm - N/A Fog Light Freezing Fog
5:56 AM 28.0 °F - 27.0 °F 96% 30.09 in 0.5 mi Calm Calm - N/A Fog Light Freezing Fog
6:16 AM 26.6 °F - 24.8 °F 93% 30.03 in 0.2 mi Calm Calm - N/A Fog Light Freezing Fog
6:43 AM 26.6 °F - 26.6 °F 100% 30.02 in 0.5 mi Calm Calm - N/A Fog Light Freezing Fog
6:51 AM 26.6 °F - 26.6 °F 100% 30.02 in 0.2 mi Calm Calm - N/A Fog Light Freezing Fog
6:56 AM 28.0 °F - 26.1 °F 92% 30.07 in 6.0 mi Calm Calm - N/A   Mostly Cloudy
7:30 AM 26.6 °F - 24.8 °F 93% 30.02 in 6.0 mi Calm Calm - N/A   Scattered Clouds
7:56 AM 30.0 °F - 28.9 °F 96% 30.06 in 6.0 mi Calm Calm - N/A   Scattered Clouds
8:03 AM 30.2 °F - 30.2 °F 100% 30.01 in 2.5 mi Calm Calm - N/A   Scattered Clouds
8:10 AM 30.2 °F - 30.2 °F 100% 30.01 in 6.0 mi Calm Calm - N/A   Clear
8:56 AM 39.0 °F - 37.9 °F 96% 30.04 in 6.0 mi Calm Calm - N/A   Clear
9:56 AM 45.0 °F 41.2 °F 39.0 °F 80% 30.02 in 10.0 mi South 6.9 mph - N/A   Clear
10:56 AM 48.9 °F - 39.9 °F 71% 29.98 in 10.0 mi South 6.9 mph - N/A   Clear
11:56 AM 52.0 °F - 41.0 °F 66% 29.94 in 10.0 mi South 10.4 mph - N/A   Clear
12:56 PM 53.6 °F - 42.8 °F 67% 29.85 in 10.0 mi SSE 9.2 mph - N/A   Clear
1:56 PM 55.0 °F - 42.1 °F 62% 29.86 in 10.0 mi South 6.9 mph - N/A   Clear
2:56 PM 54.0 °F - 42.1 °F 64% 29.84 in 10.0 mi South 6.9 mph - N/A   Clear
3:56 PM 52.0 °F - 42.1 °F 69% 29.82 in 10.0 mi SSE 9.2 mph - N/A   Clear
4:56 PM 48.0 °F - 39.9 °F 74% 29.81 in 10.0 mi South 5.8 mph - N/A   Clear
5:56 PM 46.9 °F - 39.9 °F 77% 29.80 in 10.0 mi South 6.9 mph - N/A   Clear
6:56 PM 45.0 °F 41.2 °F 39.9 °F 82% 29.80 in 10.0 mi SSW 6.9 mph - N/A   Clear
7:56 PM 45.0 °F 42.6 °F 41.0 °F 86% 29.78 in 10.0 mi SW 4.6 mph - N/A   Clear
8:51 PM 44.6 °F 43.1 °F 41.0 °F 87% 29.71 in 10.0 mi SW 3.5 mph - N/A   Mostly Cloudy
8:56 PM 45.0 °F 42.6 °F 41.0 °F 86% 29.76 in 10.0 mi SW 4.6 mph - N/A   Mostly Cloudy
9:25 PM 46.4 °F 42.9 °F 42.8 °F 87% 29.70 in 10.0 mi SSW 6.9 mph - N/A   Scattered Clouds
9:56 PM 44.1 °F 40.8 °F 41.0 °F 89% 29.73 in 10.0 mi SSW 5.8 mph - N/A   Clear
10:56 PM 45.0 °F 42.6 °F 42.1 °F 90% 29.70 in 10.0 mi SSW 4.6 mph - N/A   Mostly Cloudy
11:56 PM 46.9 °F - 43.0 °F 86% 29.67 in 10.0 mi SW 6.9 mph - N/A   Overcast